Probability
0 0 0 0 0 0 0 0 0 0 0 0 0 0 1 2 5 7 5 3 3 1 1 4 7 7 5 5 7 7 6 3 2 4 5 5 6 8 8 7 5 4 4 3
0 0 0 0 0 0 0 0 0 0 0 1 0 0 1 4 7 7 5 3 3 2 1 3 7 8 6 6 6 6 6 4 3 3 4 5 7 9 11 10 9 7 5 4
0 0 0 0 0 1 2 2 1 0 1 3 3 2 3 6 7 7 5 3 3 2 1 3 5 6 6 6 6 5 5 5 4 3 3 5 8 11 13 14 13 10 7 6
0 0 0 0 1 3 5 6 4 2 4 7 7 6 5 6 7 5 4 3 4 4 3 3 4 5 6 7 7 6 7 7 6 5 4 6 9 12 13 14 14 13 9 8
0 0 0 0 1 3 5 6 6 6 7 8 7 5 5 5 5 4 3 4 5 5 5 5 4 4 6 8 8 8 9 10 10 8 7 7 8 10 12 13 14 13 11 10
0 0 0 0 1 2 2 3 5 8 9 7 4 3 3 4 4 4 5 5 5 5 5 4 4 5 7 8 8 7 8 11 12 11 9 7 5 6 8 11 13 14 13 12
0 0 0 1 3 4 3 2 3 6 7 6 3 2 2 3 4 6 7 6 4 4 4 4 5 6 8 8 7 6 6 8 10 10 9 7 4 4 5 8 11 13 13 12
0 0 0 1 3 4 3 2 2 4 6 5 3 1 1 3 5 6 6 6 5 5 5 6 5 6 8 9 7 6 6 7 7 8 9 8 6 5 6 8 9 11 11 11
0 0 0 0 1 1 1 1 1 3 4 3 2 2 2 3 6 6 6 7 7 7 7 7 6 7 9 10 9 8 7 7 6 7 8 8 8 7 7 9 9 10 9 8
0 0 0 0 0 0 1 1 2 3 3 2 2 2 2 4 5 6 7 7 8 8 8 8 7 8 10 12 11 9 8 8 7 7 6 8 8 7 8 9 10 10 9 8
0 0 0 0 0 1 3 4 4 3 4 3 3 3 3 4 5 6 6 5 6 8 9 9 9 9 10 12 11 10 9 9 8 7 6 7 7 7 7 7 8 8 8 8
0 0 0 0 0 2 4 6 6 5 5 6 5 4 4 4 5 6 5 4 5 7 10 11 10 10 10 10 10 10 10 9 8 7 6 6 7 6 5 5 5 4 4 5
0 0 0 0 0 1 3 5 6 6 5 5 5 5 4 4 4 5 5 4 5 8 11 12 12 11 10 10 10 10 9 8 7 7 6 6 6 6 5 4 3 2 1 1
0 0 0 0 0 0 1 2 3 3 2 2 3 4 4 3 3 4 4 4 5 8 11 12 12 12 12 11 10 9 8 6 6 6 6 6 6 5 5 5 4 2 0 0
1 1 0 0 0 0 0 0 1 1 1 1 3 3 3 3 2 1 2 2 4 7 9 10 11 12 12 10 9 8 6 4 4 4 4 4 4 4 5 5 4 2 0 0
2 1 0 0 0 0 0 0 1 2 2 2 2 2 3 2 1 0 0 1 3 5 7 8 9 9 9 9 7 6 4 3 3 3 3 3 3 3 4 5 5 2 0 0
2 1 0 0 0 0 0 0 1 2 3 3 2 1 1 1 1 0 0 1 2 4 6 7 7 7 7 7 6 5 4 3 3 3 3 3 3 3 3 4 4 2 0 0
1 0 0 0 0 0 0 0 0 1 2 3 2 1 0 0 0 0 0 0 1 2 4 5 6 6 6 6 6 5 4 3 3 3 2 2 2 2 2 2 2 1 0 0
0 0 0 0 0 0 0 0 0 0 1 3 3 2 1 0 0 0 0 0 0 0 2 3 3 4 5 6 5 4 3 3 2 1 1 1 1 1 1 1 0 0 0 0
0 0 0 0 0 0 0 0 0 0 1 2 3 3 2 1 0 0 0 0 0 0 0 1 1 2 4 4 4 3 3 1 1 0 0 0 0 0 0 0 0 0 0 0
0 0 0 0 0 0 0 0 0 0 0 1 2 3 2 1 0 0 0 0 0 0 0 0 0 1 3 3 3 3 3 1 1 0 0 0 0 0 0 0 0 0 0 0
0 0 0 0 0 0 0 0 0 0 0 0 1 2 2 1 0 0 0 0 0 0 0 0 0 1 2 3 3 3 3 3 2 1 0 0 0 0 0 0 0 0 0 0
0 0 0 0 0 0 0 0 0 0 0 0 0 1 1 0 0 0 0 0 0 0 0 0 0 0 1 2 3 3 3 3 2 1 0 0 0 0 0 0 0 0 0 0
0 0 0 0 0 0 0 0 0 0 0 0 0 0 0 0 0 0 0 0 0 0 0 0 0 0 0 2 3 3 3 3 1 0 0 0 0 0 0 0 0 0 0 0
0 0 0 0 0 0 0 0 0 0 0 0 0 0 0 0 0 0 0 0 0 0 0 0 0 0 0 1 3 3 3 2 1 0 0 0 0 0 0 0 0 0 0 0
0 0 0 0 0 0 0 0 0 0 0 0 0 0 0 0 0 0 0 0 0 0 0 0 0 0 0 1 2 2 2 1 0 0 0 0 0 0 0 0 0 0 0 0
0 0 0 0 0 0 0 0 0 0 0 0 0 0 0 0 0 0 0 0 0 0 0 0 0 0 0 0 1 1 1 0 0 0 0 0 0 0 0 0 0 0 0 0
Wind_Speed
5 5 3 4 5 6 6 8 9 8 8 9 8 7 5 4 3 2 2 3 4 4 3 3 3 3 4 4 3 4 4 3 3 2 1 2 2 2 2 2 3 2 2 2
2 2 2 3 4 5 5 5 5 3 7 6 3 2 3 4 4 4 4 5 4 4 4 4 4 4 4 3 3 4 4 3 2 1 1 1 2 2 2 2 2 2 2 2
3 2 1 4 5 5 4 4 6 7 8 2 2 4 5 5 5 5 5 4 4 4 4 4 4 5 5 4 3 3 3 2 2 1 1 1 1 1 2 2 2 2 2 2
2 1 5 8 2 3 4 3 3 4 3 3 4 3 2 3 4 4 3 3 3 3 3 3 3 3 3 3 3 3 2 2 1 1 2 1 0 1 2 2 2 2 2 3
3 3 5 5 2 3 3 3 3 3 2 1 1 3 3 1 2 4 3 3 3 2 3 3 3 4 4 3 3 2 2 2 2 2 2 1 1 2 2 2 2 2 2 3
4 4 6 6 4 1 3 4 3 3 4 3 4 2 4 2 1 1 1 1 2 3 4 4 3 4 5 3 2 2 2 2 2 2 2 2 2 2 1 2 2 2 2 2
3 3 6 4 4 2 4 6 3 3 4 4 4 4 3 1 1 2 2 2 3 3 3 2 3 4 4 3 2 3 2 1 1 1 2 1 1 1 1 1 1 1 2 2
3 2 6 3 2 3 5 3 1 2 3 3 3 1 1 1 1 2 2 3 3 3 2 1 3 4 3 2 3 2 1 1 1 1 1 1 1 1 1 0 0 1 2 2
6 6 4 2 2 3 1 1 1 1 2 3 3 2 2 1 1 1 1 1 2 3 2 1 2 4 4 3 2 2 2 1 1 1 1 1 1 1 1 0 1 1 1 2
2 4 3 3 2 2 1 1 1 1 2 3 2 1 1 2 1 1 1 1 1 2 2 1 2 3 3 3 2 3 2 1 1 1 0 0 0 1 1 1 1 1 2 2
2 4 3 3 3 3 3 3 3 2 1 2 4 2 2 1 2 2 2 1 1 2 3 3 2 2 2 2 3 3 2 2 1 1 1 1 1 2 2 3 3 3 3 2
5 5 3 4 4 2 1 2 1 2 2 1 2 3 2 2 2 1 2 1 1 2 2 2 2 2 2 3 3 3 2 2 2 2 1 1 1 2 2 3 3 4 4 4
5 3 4 4 2 1 1 1 1 0 1 0 0 2 2 2 1 1 1 2 2 3 2 3 2 3 3 3 3 4 3 3 2 2 2 2 2 2 2 3 2 3 4 4
3 1 1 2 2 1 0 1 2 2 2 1 0 0 1 1 1 1 2 3 3 2 2 2 2 3 3 3 3 3 3 4 3 3 2 2 2 2 2 2 2 3 3 4
4 3 3 2 1 1 1 2 2 2 2 2 1 0 1 1 2 3 3 2 1 1 1 1 2 3 3 2 3 3 3 3 2 2 2 2 2 2 3 3 3 3 2 3
1 1 1 2 2 1 1 2 1 1 1 1 1 1 1 2 2 2 1 0 1 2 2 2 2 3 2 2 2 2 2 4 3 2 2 2 2 3 3 3 3 3 3 3
2 1 2 1 2 1 1 1 2 2 1 1 2 2 0 0 1 1 2 1 1 2 2 2 2 2 1 1 2 2 2 2 3 3 3 3 3 3 3 3 3 3 4 3
4 4 4 4 3 2 1 1 1 1 1 2 1 0 0 1 1 2 2 2 2 2 2 2 1 1 1 1 2 2 2 2 2 2 2 2 2 2 2 3 3 4 3 3
2 2 1 2 2 2 2 1 1 1 1 0 0 1 1 2 2 2 1 1 1 2 4 3 2 1 1 1 1 1 1 1 2 2 2 2 2 2 2 3 3 3 3 2
1 2 2 1 1 2 1 1 0 0 0 0 0 0 1 2 1 1 0 1 2 3 3 2 2 1 2 1 1 1 1 2 2 2 2 2 2 2 2 3 3 3 3 2
2 2 2 1 1 0 1 1 1 1 1 1 1 1 1 1 1 0 0 2 3 2 2 2 1 1 2 2 1 1 1 1 2 2 2 2 2 2 2 2 3 2 2 2
1 1 1 1 1 1 1 1 1 1 1 1 1 0 0 1 1 1 2 2 3 3 2 2 2 2 2 2 1 1 1 1 1 1 1 1 2 2 2 2 2 2 2 2
1 1 1 1 1 1 1 0 1 1 1 1 1 1 1 1 1 1 2 2 2 2 1 2 2 2 2 1 0 0 1 1 1 1 1 1 1 1 2 2 2 2 2 2
0 0 0 0 1 1 0 1 1 0 1 1 1 1 1 1 2 1 1 2 2 2 1 2 2 2 1 1 1 1 1 1 1 1 1 1 1 1 1 2 2 2 2 2
0 0 1 1 1 1 1 1 1 1 1 1 1 1 1 1 1 1 1 1 1 2 2 2 2 1 0 1 1 1 1 1 1 1 1 1 1 1 1 2 2 2 2 2
1 1 1 1 2 1 1 1 1 0 1 1 2 1 1 1 1 1 1 1 2 2 2 2 2 2 2 1 1 1 1 1 1 1 1 1 1 1 2 2 2 2 2 2
0 0 0 0 0 1 1 1 1 1 0 0 0 1 1 1 1 1 1 1 1 2 2 2 2 2 2 2 2 2 2 2 2 1 2 2 2 2 2 2 2 2 2 2
Wind_Direction
227 233 204 211 216 191 191 188 188 221 223 242 232 224 227 214 193 182 191 193 195 193 196 199 186 177 173 172 164 157 153 170 203 216 223 225 218 216 214 213 223 223 226 242
278 261 235 239 236 201 204 190 200 213 246 250 238 206 211 208 193 202 208 207 206 197 192 191 187 184 175 174 173 161 166 184 193 205 220 235 241 228 219 225 229 221 224 230
241 282 22 262 232 200 199 191 177 205 233 222 208 208 204 201 196 205 214 215 213 202 196 193 188 176 175 183 170 163 170 173 170 188 220 247 258 255 240 238 228 228 236 239
172 88 226 243 248 191 188 210 206 222 229 197 210 207 211 197 192 206 209 205 207 197 185 183 169 155 155 150 153 159 160 165 173 197 226 241 238 253 254 241 229 234 241 243
138 184 259 290 265 178 180 246 232 211 202 171 113 47 346 295 192 198 202 195 193 176 157 141 140 143 134 134 142 144 162 189 204 200 206 203 238 261 263 248 244 242 245 241
142 166 221 248 290 225 120 267 264 197 186 167 112 120 263 272 162 146 132 125 134 123 113 119 133 133 129 136 136 174 208 217 213 196 191 200 229 251 269 253 253 253 261 255
161 204 252 278 308 84 156 245 255 197 190 164 177 205 218 157 122 129 125 112 105 110 120 147 148 132 135 145 183 217 219 210 195 204 198 195 211 243 272 271 279 288 285 286
144 182 250 314 66 164 232 277 216 192 197 180 184 177 115 118 129 112 96 95 101 111 122 137 134 133 143 184 214 201 174 174 197 221 230 202 195 272 289 240 246 308 306 308
186 211 245 273 236 255 228 259 260 204 203 156 154 172 152 138 137 123 131 131 122 127 123 112 158 158 173 215 202 166 149 168 205 218 235 217 193 228 297 248 230 269 283 290
247 273 288 295 316 344 340 297 285 197 145 133 146 171 157 144 149 166 196 180 155 133 148 206 217 191 200 210 184 163 169 182 193 184 252 346 276 220 218 239 246 251 262 277
257 284 321 327 336 338 350 19 42 37 63 151 149 158 167 177 200 206 207 203 169 181 200 220 220 210 207 195 167 170 189 205 214 220 213 223 246 234 229 229 223 224 242 248
225 235 222 263 288 320 2 8 42 54 16 20 158 173 182 216 238 232 216 198 193 204 218 236 232 240 228 190 175 177 193 211 215 217 223 226 246 286 270 252 246 230 231 232
236 251 237 259 289 320 346 358 1 65 153 202 258 168 183 221 244 246 243 228 220 215 223 232 229 239 239 206 185 187 201 214 215 216 218 226 233 247 283 299 279 254 259 257
233 209 263 276 274 297 359 38 33 28 35 73 9 176 181 207 207 230 250 244 228 215 222 225 227 249 249 212 192 198 209 216 212 213 218 224 233 240 244 256 284 294 284 273
256 234 219 237 299 5 52 74 67 38 16 3 2 279 208 210 237 255 269 259 207 184 231 228 238 265 270 221 205 205 209 216 211 212 217 225 234 240 245 247 257 275 294 295
289 32 142 167 179 183 100 105 139 209 206 295 309 299 266 238 246 264 296 255 183 224 237 237 254 266 275 233 214 213 218 226 219 214 220 222 227 235 243 247 255 262 268 276
145 174 174 198 212 199 187 194 203 216 216 227 249 258 278 32 1 317 316 299 229 242 250 239 258 272 270 239 223 228 229 234 230 225 225 226 228 231 235 237 246 259 265 262
216 213 202 191 194 200 213 217 226 235 238 242 237 266 252 212 249 270 292 324 350 341 315 285 292 326 288 265 248 239 227 226 225 227 227 226 233 239 245 249 250 257 273 271
202 190 187 178 181 174 183 208 224 257 293 317 154 218 245 255 267 275 304 339 324 306 303 312 308 291 289 289 297 245 240 240 242 243 235 226 225 231 236 244 251 256 258 262
139 133 136 145 143 145 180 239 267 318 288 128 114 284 291 285 275 260 260 276 268 270 290 307 307 294 283 284 334 284 257 245 242 247 245 242 239 243 244 249 255 260 259 257
117 129 142 148 150 176 209 215 205 246 262 193 192 221 249 284 289 233 289 301 297 300 307 291 283 286 297 308 295 245 249 258 260 254 246 243 241 248 255 260 266 267 266 267
118 128 141 151 187 264 272 219 196 202 225 249 268 305 356 324 318 304 270 258 283 308 313 292 284 286 298 304 282 270 261 267 277 268 254 247 242 243 257 264 266 264 264 268
153 167 179 191 199 230 346 339 192 179 204 229 229 228 240 258 251 253 294 301 319 326 328 312 311 309 319 8 351 337 325 317 299 282 261 250 245 246 257 265 265 263 263 270
126 137 3 63 95 99 91 286 292 271 255 246 239 228 214 267 299 278 268 311 335 336 337 332 331 332 32 66 35 357 340 328 315 311 293 276 270 262 263 271 276 278 278 281
118 62 42 80 121 220 243 306 23 21 21 12 358 339 290 220 230 284 329 327 340 347 347 352 360 348 30 27 34 356 350 339 326 331 328 314 298 299 300 297 289 286 287 288
186 206 225 231 222 207 187 146 110 30 39 18 2 5 14 37 63 36 20 14 10 359 355 356 15 20 19 16 16 5 354 349 349 347 333 321 319 318 317 320 321 313 307 303
111 124 169 313 331 154 153 150 147 150 165 167 340 350 21 29 39 41 35 27 18 9 8 9 21 20 15 14 13 12 8 5 6 0 351 345 341 331 323 320 316 312 309 311